• In Kazakhstan
  • List of Countries
  • For 7 days
  • Water Temperature
  • Satellite Maps
  • Weather Map
  • News
  • Weather Widgets
  • user-avatar
    Login

    Hourly Weather Bandipura

    Today, 21 November, Tuesday

    Time Temperature Precipitation Wind Pressure Humidity
    00:00 +4°C° 0 mm 1 mps 625 mmHg 65%
    01:00 +4°C° 0 mm 1 mps 624 mmHg 65%
    02:00 +3°C° 0 mm 2 mps 624 mmHg 64%
    03:00 +2°C° 0 mm 2 mps 624 mmHg 63%
    04:00 +2°C° 0 mm 2 mps 624 mmHg 62%
    05:00 +2°C° 0 mm 2 mps 624 mmHg 57%
    06:00 +3°C° 0 mm 2 mps 624 mmHg 54%
    07:00 +4°C° 0 mm 2 mps 625 mmHg 50%
    08:00 +5°C° 0 mm 2 mps 625 mmHg 47%
    09:00 +7°C° 0 mm 2 mps 625 mmHg 40%
    10:00 +10°C° 0 mm 1 mps 626 mmHg 33%
    11:00 +12°C° 0 mm 1 mps 626 mmHg 27%
    12:00 +12°C° 0 mm 1 mps 625 mmHg 26%
    13:00 +13°C° 0 mm 1 mps 625 mmHg 26%
    14:00 +13°C° 0 mm 1 mps 625 mmHg 25%
    15:00 +11°C° 0 mm 1 mps 624 mmHg 30%
    16:00 +9°C° 0 mm 1 mps 624 mmHg 36%
    17:00 +7°C° 0 mm 1 mps 623 mmHg 41%
    18:00 +6°C° 0 mm 1 mps 623 mmHg 43%
    19:00 +5°C° 0 mm 1 mps 624 mmHg 44%
    20:00 +4°C° 0 mm 2 mps 624 mmHg 45%
    21:00 +3°C° 0 mm 2 mps 624 mmHg 45%
    22:00 +3°C° 0 mm 2 mps 624 mmHg 45%
    23:00 +3°C° 0 mm 2 mps 625 mmHg 45%

    Tomorrow, 22 November, Wednesday

    Time Temperature Precipitation Wind Pressure Humidity
    00:00 +2°C° 0 mm 2 mps 624 mmHg 45%
    01:00 +2°C° 0 mm 2 mps 624 mmHg 45%
    02:00 +2°C° 0 mm 2 mps 624 mmHg 44%
    03:00 +2°C° 0 mm 2 mps 624 mmHg 44%
    04:00 +1°C° 0 mm 2 mps 624 mmHg 44%
    05:00 +1°C° 0 mm 2 mps 624 mmHg 43%
    06:00 +2°C° 0 mm 2 mps 625 mmHg 41%
    07:00 +3°C° 0 mm 2 mps 625 mmHg 39%
    08:00 +4°C° 0 mm 2 mps 626 mmHg 37%
    09:00 +7°C° 0 mm 2 mps 626 mmHg 32%
    10:00 +9°C° 0 mm 2 mps 626 mmHg 28%
    11:00 +12°C° 0 mm 2 mps 627 mmHg 23%
    12:00 +13°C° 0 mm 2 mps 626 mmHg 22%
    13:00 +13°C° 0 mm 2 mps 626 mmHg 22%
    14:00 +13°C° 0 mm 2 mps 625 mmHg 21%
    15:00 +10°C° 0 mm 2 mps 625 mmHg 25%
    16:00 +9°C° 0 mm 1 mps 624 mmHg 28%
    17:00 +6°C° 0 mm 1 mps 623 mmHg 32%
    18:00 +5°C° 0 mm 2 mps 624 mmHg 33%
    19:00 +4°C° 0 mm 2 mps 624 mmHg 34%
    20:00 +4°C° 0 mm 2 mps 625 mmHg 34%
    21:00 +3°C° 0 mm 2 mps 625 mmHg 34%
    22:00 +3°C° 0 mm 2 mps 624 mmHg 33%
    23:00 +3°C° 0 mm 2 mps 624 mmHg 32%

    Day after tomorrow, 23 November, Thursday

    Time Temperature Precipitation Wind Pressure Humidity
    00:00 +3°C° 0 mm 2 mps 624 mmHg 32%
    01:00 +2°C° 0 mm 2 mps 624 mmHg 31%
    02:00 +2°C° 0 mm 2 mps 624 mmHg 31%
    03:00 +2°C° 0 mm 2 mps 624 mmHg 31%
    04:00 +2°C° 0 mm 2 mps 623 mmHg 30%
    05:00 +1°C° 0 mm 3 mps 623 mmHg 30%
    06:00 +3°C° 0 mm 2 mps 623 mmHg 29%
    07:00 +4°C° 0 mm 2 mps 624 mmHg 28%
    08:00 +5°C° 0 mm 2 mps 624 mmHg 27%
    09:00 +8°C° 0 mm 2 mps 625 mmHg 24%
    10:00 +10°C° 0 mm 2 mps 625 mmHg 21%
    11:00 +13°C° 0 mm 1 mps 625 mmHg 18%
    12:00 +14°C° 0 mm 1 mps 625 mmHg 17%
    13:00 +14°C° 0 mm 1 mps 625 mmHg 16%
    14:00 +14°C° 0 mm 1 mps 624 mmHg 15%
    15:00 +12°C° 0 mm 1 mps 624 mmHg 19%
    16:00 +10°C° 0 mm 1 mps 623 mmHg 23%
    17:00 +8°C° 0 mm 1 mps 622 mmHg 27%
    18:00 +8°C° 0 mm 1 mps 623 mmHg 28%
    19:00 +7°C° 0 mm 1 mps 623 mmHg 29%
    20:00 +6°C° 0 mm 2 mps 624 mmHg 30%
    21:00 +5°C° 0 mm 2 mps 624 mmHg 30%
    22:00 +5°C° 0 mm 2 mps 624 mmHg 30%
    23:00 +5°C° 0 mm 2 mps 624 mmHg 31%

    24 November, Friday

    Time Temperature Precipitation Wind Pressure Humidity
    00:00 +5°C° 0 mm 2 mps 624 mmHg 30%
    01:00 +4°C° 0 mm 2 mps 624 mmHg 30%
    02:00 +4°C° 0 mm 2 mps 623 mmHg 30%
    03:00 +4°C° 0 mm 2 mps 623 mmHg 30%
    04:00 +4°C° 0 mm 2 mps 623 mmHg 29%
    05:00 +4°C° 0 mm 2 mps 623 mmHg 29%
    06:00 +5°C° 0 mm 2 mps 624 mmHg 28%
    07:00 +6°C° 0 mm 2 mps 625 mmHg 28%
    08:00 +7°C° 0 mm 2 mps 625 mmHg 27%
    09:00 +9°C° 0 mm 2 mps 626 mmHg 24%
    10:00 +13°C° 0 mm 1 mps 627 mmHg 20%
    11:00 +15°C° 0 mm 1 mps 627 mmHg 17%
    12:00 +15°C° 0 mm 1 mps 627 mmHg 17%
    13:00 +16°C° 0 mm 1 mps 627 mmHg 17%
    14:00 +16°C° 0 mm 1 mps 626 mmHg 18%
    15:00 +14°C° 0 mm 1 mps 625 mmHg 22%
    16:00 +11°C° 0 mm 1 mps 625 mmHg 26%
    17:00 +9°C° 0 mm 1 mps 624 mmHg 31%
    18:00 +9°C° 0 mm 1 mps 624 mmHg 32%
    19:00 +8°C° 0 mm 1 mps 625 mmHg 33%
    20:00 +7°C° 0 mm 2 mps 625 mmHg 34%
    21:00 +7°C° 0 mm 2 mps 625 mmHg 34%
    22:00 +6°C° 0 mm 2 mps 625 mmHg 34%
    23:00 +6°C° 0 mm 2 mps 625 mmHg 35%

    25 November, Saturday

    Time Temperature Precipitation Wind Pressure Humidity
    00:00 +6°C° 0 mm 2 mps 625 mmHg 35%
    01:00 +6°C° 0 mm 2 mps 625 mmHg 35%
    02:00 +6°C° 0 mm 2 mps 624 mmHg 34%
    03:00 +6°C° 0 mm 2 mps 624 mmHg 34%
    04:00 +6°C° 0 mm 2 mps 624 mmHg 35%
    05:00 +6°C° 0 mm 2 mps 624 mmHg 35%
    06:00 +7°C° 0 mm 2 mps 625 mmHg 34%
    07:00 +7°C° 0 mm 2 mps 625 mmHg 33%
    08:00 +8°C° 0 mm 2 mps 626 mmHg 32%
    09:00 +12°C° 0 mm 1 mps 626 mmHg 28%
    10:00 +14°C° 0 mm 1 mps 627 mmHg 24%
    11:00 +16°C° 0 mm 1 mps 628 mmHg 20%
    12:00 +16°C° 0 mm 1 mps 627 mmHg 20%
    13:00 +18°C° 0 mm 1 mps 627 mmHg 21%
    14:00 +18°C° 0 mm 1 mps 626 mmHg 21%
    15:00 +15°C° 0 mm 1 mps 626 mmHg 25%
    16:00 +12°C° 0 mm 1 mps 625 mmHg 30%
    17:00 +9°C° 0 mm 0 mps 624 mmHg 35%
    18:00 +10°C° 0 mm 1 mps 624 mmHg 35%
    19:00 +9°C° 0 mm 1 mps 625 mmHg 35%
    20:00 +8°C° 0 mm 2 mps 625 mmHg 36%
    21:00 +8°C° 0 mm 2 mps 625 mmHg 36%
    22:00 +8°C° 0 mm 1 mps 625 mmHg 36%
    23:00 +8°C° 0 mm 1 mps 626 mmHg 37%

    26 November, Sunday

    Time Temperature Precipitation Wind Pressure Humidity
    00:00 +8°C° 0 mm 1 mps 625 mmHg 37%
    01:00 +7°C° 0 mm 1 mps 625 mmHg 37%
    02:00 +7°C° 0 mm 1 mps 625 mmHg 38%
    03:00 +6°C° 0 mm 2 mps 625 mmHg 38%
    04:00 +5°C° 0 mm 2 mps 625 mmHg 39%
    05:00 +5°C° 0 mm 2 mps 625 mmHg 40%
    06:00 +6°C° 0 mm 2 mps 626 mmHg 38%
    07:00 +8°C° 0 mm 1 mps 626 mmHg 37%
    08:00 +9°C° 0 mm 1 mps 627 mmHg 35%
    09:00 +11°C° 0 mm 1 mps 627 mmHg 32%
    10:00 +13°C° 0 mm 1 mps 628 mmHg 28%
    11:00 +15°C° 0 mm 1 mps 628 mmHg 25%
    12:00 +15°C° 0 mm 1 mps 628 mmHg 24%
    13:00 +16°C° 0 mm 1 mps 627 mmHg 24%
    14:00 +16°C° 0 mm 1 mps 627 mmHg 23%
    15:00 +14°C° 0 mm 1 mps 626 mmHg 27%
    16:00 +12°C° 0 mm 1 mps 625 mmHg 32%
    17:00 +8°C° 0 mm 0 mps 625 mmHg 36%
    18:00 +9°C° 0 mm 1 mps 625 mmHg 36%
    19:00 +9°C° 0 mm 1 mps 625 mmHg 35%
    20:00 +9°C° 0 mm 1 mps 626 mmHg 35%
    21:00 +9°C° 0 mm 1 mps 625 mmHg 35%
    22:00 +9°C° 0 mm 1 mps 625 mmHg 34%
    23:00 +7°C° 0 mm 2 mps 625 mmHg 34%
    Show more